Naples, FL

11:44 PM EDT on March 26, 2017 (GMT -0400)
Naples Municipal

Weather History for KAPF - May, 2014

Change the Weather History Date:

Wednesday, May 21, 2014

  Actual Average Record
Temperature  
Mean Temperature 78 °F 79 °F  
Max Temperature 91 °F 89 °F 94 °F (1975)
Min Temperature 65 °F 70 °F 59 °F (1971)
Degree Days  
Heating Degree Days 0 0  
Month to date heating degree days 0 0  
Since 1 July heating degree days 149 260  
Cooling Degree Days 13 14  
Month to date cooling degree days 299 261  
Year to date cooling degree days 1033 881  
Growing Degree Days 28 (Base 50)    
Moisture  
Dew Point 64 °F    
Average Humidity 63    
Maximum Humidity 87    
Minimum Humidity 38    
Precipitation  
Precipitation 0.00 in 0.12 in 2.45 in (1996)
Month to date precipitation 0.50 1.77  
Year to date precipitation 7.36 10.46  
Snow  
Snow 0.00 in - - ()
Month to date snowfall 0.0  
Since 1 July snowfall 0.0  
Snow Depth 0.00 in    
Sea Level Pressure  
Sea Level Pressure 30.13 in    
Wind  
Wind Speed 8 mph (East)    
Max Wind Speed 17 mph    
Max Gust Speed 24 mph    
Visibility 10 miles    
Events      
T = Trace of Precipitation, MM = Missing Value Source: NWS Daily Summary

Daily Weather History Graph

Daily Weather History Graph

Search for Another Location

Airport or City:

Trip Planner

Search our weather history database for the weather conditions in past years. The results will help you decide how hot, cold, wet, or windy it might be!

Date:

Astronomy

May. 21, 2014 Rise Set
Actual Time 6:38 AM EDT 8:09 PM EDT
Civil Twilight 6:12 AM EDT 8:35 PM EDT
Nautical Twilight 5:42 AM EDT 9:05 PM EDT
Astronomical Twilight 5:10 AM EDT 9:36 PM EDT
Moon 1:36 AM EDT (5/21) 1:30 PM EDT (5/21)
Length of Visible Light 14h 22m
Length of Day
13h 31m
Waning Gibbous, 49% of the Moon is Illuminated
May 21
Waning Gibbous
May 28
New
Jun 5
First Quarter
Jun 13
Full
Jun 19
Last Quarter

Hourly Weather History & Observations

Time (EDT) Temp. Heat Index Dew Point Humidity Pressure Visibility Wind Dir Wind Speed Gust Speed Precip Events Conditions
12:53 AM 73.0 °F - 63.0 °F 71% 30.14 in 10.0 mi ENE 8.1 mph - N/A   Clear
1:53 AM 70.0 °F - 63.0 °F 78% 30.13 in 10.0 mi NE 5.8 mph - N/A   Clear
2:53 AM 69.1 °F - 63.0 °F 81% 30.12 in 10.0 mi ENE 5.8 mph - N/A   Clear
3:53 AM 68.0 °F - 63.0 °F 84% 30.12 in 10.0 mi NE 4.6 mph - N/A   Clear
4:53 AM 66.9 °F - 62.1 °F 84% 30.12 in 10.0 mi ENE 5.8 mph - N/A   Clear
5:53 AM 66.0 °F - 62.1 °F 87% 30.12 in 10.0 mi ENE 5.8 mph - N/A   Clear
6:53 AM 66.0 °F - 63.0 °F 90% 30.14 in 10.0 mi NE 5.8 mph - N/A   Clear
7:53 AM 70.0 °F - 64.0 °F 81% 30.16 in 10.0 mi ENE 8.1 mph - N/A   Clear
8:53 AM 75.9 °F - 64.0 °F 67% 30.17 in 10.0 mi ENE 8.1 mph - N/A   Clear
9:53 AM 79.0 °F - 63.0 °F 58% 30.17 in 10.0 mi East 12.7 mph - N/A   Clear
10:53 AM 82.9 °F 83.7 °F 62.1 °F 49% 30.17 in 10.0 mi East 9.2 mph - N/A   Scattered Clouds
11:53 AM 84.0 °F 84.4 °F 61.0 °F 46% 30.16 in 10.0 mi ENE 5.8 mph 18.4 mph N/A   Scattered Clouds
12:53 PM 84.9 °F 85.0 °F 61.0 °F 44% 30.15 in 10.0 mi ENE 10.4 mph - N/A   Mostly Cloudy
2:53 PM 88.0 °F 87.9 °F 61.0 °F 40% 30.12 in 10.0 mi ENE 13.8 mph 18.4 mph N/A   Clear
3:53 PM 89.1 °F 88.8 °F 60.1 °F 38% 30.10 in 10.0 mi ENE 8.1 mph 18.4 mph N/A   Scattered Clouds
4:53 PM 82.9 °F 85.4 °F 66.9 °F 58% 30.09 in 10.0 mi WSW 9.2 mph - N/A   Scattered Clouds
5:53 PM 82.9 °F 85.4 °F 66.9 °F 58% 30.09 in 10.0 mi SW 10.4 mph - N/A   Partly Cloudy
6:53 PM 82.9 °F 85.8 °F 68.0 °F 60% 30.09 in 10.0 mi SW 6.9 mph - N/A   Scattered Clouds
7:53 PM 81.0 °F 83.3 °F 66.9 °F 62% 30.10 in 10.0 mi South 4.6 mph - N/A   Clear
8:53 PM 80.1 °F 82.3 °F 66.9 °F 64% 30.11 in 10.0 mi SE 8.1 mph - N/A   Clear
9:53 PM 78.1 °F - 68.0 °F 71% 30.12 in 10.0 mi ESE 5.8 mph - N/A   Clear
10:53 PM 77.0 °F - 63.0 °F 62% 30.14 in 10.0 mi East 10.4 mph - N/A   Partly Cloudy
11:53 PM 75.0 °F - 63.0 °F 66% 30.14 in 10.0 mi ESE 10.4 mph - N/A   Partly Cloudy